Hourly Weather Roundup
Issued by NWS Central Illinois

Home | Current Version | Previous Version | Text Only | Print | Product List | Glossary On
Versions: 1 2 3 4 5 6 7 8 9 10 11 12 13 14 15 16 17 18 19 20 21 22 23 24 25 26 27 28 29 30 31 32 33 34 35 36 37 38 39 40 41 42 43 44 45 46 47 48 49 50
000
NZUS43 KILX 021810
HWRILX

AREA WEATHER ROUNDUP
NATIONAL WEATHER SERVICE, LINCOLN IL
1200 PM CST MON MAR 02 2015


CITY           SKY/WX    TMP DP  RH WIND       PRES   REMARKS
BLOOMINGTON    MOSUNNY   26  17  68 E10       30.51F WCI  16
6HR MIN TEMP:  10; 6HR MAX TEMP:  27;

CHAMPAIGN      MOSUNNY   24  16  71 E6        30.52F WCI  17
6HR MIN TEMP:   6; 6HR MAX TEMP:  24;

DECATUR        PTSUNNY   27  17  66 E7        30.52F WCI  19
6HR MIN TEMP:  18; 6HR MAX TEMP:  28;

FLORA          SUNNY     30  18  61 NE8       30.55S WCI  23
6HR MIN TEMP:   6; 6HR MAX TEMP:  30;

GALESBURG      MOSUNNY   24  16  69 CALM      30.51F
JACKSONVILLE   PTSUNNY   30  19  64 E5        30.52S WCI  25
6HR MIN TEMP:  12; 6HR MAX TEMP:  30; 6HR PCP:  0.14;

LACON          MOSUNNY   27  14  57 CALM      30.52F
6HR MIN TEMP:   6; 6HR MAX TEMP:  27;

LAWRENCEVILLE  SUNNY     30  18  60 NE7       30.55F WCI  23
6HR MIN TEMP:  10; 6HR MAX TEMP:  30; 6HR PCP: TRACE;

LITCHFIELD     MOSUNNY   31  17  56 E5        30.52F WCI  27
$$


CITY           SKY/WX    TMP DP  RH WIND       PRES   REMARKS
LINCOLN        PTSUNNY   28  17  64 E3        30.54F
6HR MIN TEMP:   4; 6HR MAX TEMP:  29; 6HR PCP:  0.04;

MACOMB         MOSUNNY   24  17  74 CALM      30.53F
MATTOON        MOSUNNY   26  17  68 N8        30.51F WCI  18
6HR MIN TEMP:  11; 6HR MAX TEMP:  26; 6HR PCP: TRACE;

MT CARMEL AP   MOSUNNY   34  19  55 CALM      30.54F
OLNEY-NOBLE AP SUNNY     32  19  59 NE6       30.55S WCI  26
PARIS          MOSUNNY   24  17  73 CALM      30.54F
6HR MIN TEMP:   9; 6HR MAX TEMP:  24;

PEORIA         PTSUNNY   30  16  56 CALM      30.51F
6HR MIN TEMP:  17; 6HR MAX TEMP:  32;

PONTIAC        MOSUNNY   24  16  73 NE3       30.55S
RANTOUL        MOSUNNY   27  17  65 E7        30.53S WCI  20
6HR MIN TEMP:  11; 6HR MAX TEMP:  27;

ROBINSON       SUNNY     29  19  66 CALM      30.55F
6HR MIN TEMP:   5; 6HR MAX TEMP:  29;

SPRINGFIELD    PTSUNNY   32  21  64 CALM      30.52F
6HR MIN TEMP:  10; 6HR MAX TEMP:  35;

TAYLORVILLE    PTSUNNY   28  19  69 N6        30.53S WCI  22
$$

...REGIONAL REPORTS...


CITY           SKY/WX    TMP DP  RH WIND       PRES   REMARKS
CHICAGO O`HARE PTSUNNY   27  11  51 CALM      30.51F
KANKAKEE       SUNNY     25  16  69 CALM      30.54F
MOLINE         SUNNY     30  13  49 CALM      30.51F
MOUNT VERNON   SUNNY     30  18  59 NE13      30.54F WCI  20
PITTSFIELD     MOSUNNY   31  20  63 SE7       30.53S WCI  25
QUINCY         PTSUNNY   31  18  58 CALM      30.51S
ROCKFORD       PTSUNNY   27  12  53 CALM      30.52F
$$


CITY           SKY/WX    TMP DP  RH WIND       PRES   REMARKS
BURLINGTON     MOSUNNY   27  15  61 SE6       30.50F WCI  20
CEDAR RAPIDS   SUNNY     21  14  74 NW3       30.49F
DES MOINES     CLOUDY    29  13  51 S3        30.47F
KIRKSVILLE     PTSUNNY   29  19  66 SE7       30.49F WCI  22
OTTUMWA        MOSUNNY   27  14  58 E6        30.48F WCI  20
ST LOUIS       PTSUNNY   34  17  50 E10       30.52F WCI  26
$$


CITY           SKY/WX    TMP DP  RH WIND       PRES   REMARKS
TERRE HAUTE    MOSUNNY   31  16  54 CALM      30.53F
EVANSVILLE     MOSUNNY   36  18  48 E6        30.53F WCI  31
INDIANAPOLIS   PTSUNNY   30  15  53 W3        30.51F
LAFAYETTE      SUNNY     27  14  58 CALM      30.54F
MADISON        PTSUNNY   24   9  52 VRB7      30.49F WCI  16
MILWAUKEE      MOSUNNY   27   8  44 SW3       30.49F
$$




USA.gov is the U.S. government's official web portal to all federal, state and local government web resources and services.